Location: Unspecified
(50.7693°N, 0.0000°E)
Time: 18:45:30
(UTC+00:00)

Transit 2A Rocket - All Passes

Search period start: 16 June 2019 00:00
Search period end: 26 June 2019 00:00
Orbit: 586 x 917 km, 66.7° (Epoch: 16 June)

Date Brightness Start Highest point End Pass type
(mag) Time Alt. Az. Time Alt. Az. Time Alt. Az.
16 Jun - 11:21:32 10° S 11:27:22 48° ESE 11:33:04 10° NE daylight
16 Jun - 13:04:16 10° WSW 13:10:08 46° NW 13:15:47 10° NNE daylight
16 Jun - 14:49:53 10° WNW 14:54:11 20° NNW 14:58:19 10° NNE daylight
16 Jun - 16:35:26 10° NNW 16:39:00 16° N 16:42:25 10° NE daylight
16 Jun - 18:18:36 10° NNW 18:23:29 29° NNE 18:28:00 10° E daylight
16 Jun - 20:01:14 10° NW 20:06:42 76° SW 20:11:37 10° SSE daylight
16 Jun - 21:45:51 10° WNW 21:48:14 13° WSW 21:50:32 10° SW visible
17 Jun - 10:39:43 10° S 10:45:02 32° ESE 10:50:16 10° NE daylight
17 Jun - 12:21:22 10° SW 12:27:27 64° NW 12:33:18 10° NE daylight
17 Jun - 14:06:23 10° WNW 14:11:09 24° NNW 14:15:44 10° NNE daylight
17 Jun - 15:52:22 10° NW 15:55:51 16° N 15:59:12 10° NE daylight
17 Jun - 17:36:04 10° NNW 17:40:32 23° NNE 17:44:42 10° ENE daylight
17 Jun - 19:18:39 10° NW 19:24:10 72° NE 19:29:07 10° SE daylight
17 Jun - 21:02:10 10° WNW 21:06:09 22° WSW 21:09:52 10° SSW visible
18 Jun - 09:58:23 10° SSE 10:02:49 21° ESE 10:07:11 10° ENE daylight
18 Jun - 11:38:42 10° SW 11:44:51 90° WNW 11:50:47 10° NE daylight
18 Jun - 13:22:59 10° W 13:28:13 29° NNW 13:33:13 10° NNE daylight
18 Jun - 15:09:05 10° NW 15:12:43 16° N 15:16:12 10° NNE daylight
18 Jun - 16:53:28 10° NNW 16:57:31 19° NNE 17:01:19 10° ENE daylight
18 Jun - 18:36:08 10° NNW 18:41:30 49° NE 18:46:21 10° ESE daylight
18 Jun - 20:19:09 10° NW 20:23:58 35° WSW 20:28:22 10° S daylight
19 Jun - 09:17:58 10° SE 09:20:42 13° ESE 09:23:25 10° ENE daylight
19 Jun - 10:56:18 10° SSW 11:02:21 63° ESE 11:08:11 10° NE daylight
19 Jun - 12:39:43 10° WSW 12:45:21 38° NW 12:50:45 10° NNE daylight
19 Jun - 14:25:38 10° WNW 14:29:36 18° NNW 14:33:24 10° NNE daylight
19 Jun - 16:10:45 10° NNW 16:14:26 17° NNE 16:17:56 10° NE daylight
19 Jun - 17:53:39 10° NNW 17:58:44 35° NE 18:03:22 10° ESE daylight
19 Jun - 19:36:22 10° NW 19:41:39 56° WSW 19:46:24 10° SSE daylight
20 Jun - 10:14:15 10° S 10:19:57 42° ESE 10:25:30 10° NE daylight
20 Jun - 11:56:39 10° WSW 12:02:36 51° NW 12:08:17 10° NNE daylight
20 Jun - 13:42:06 10° WNW 13:46:31 21° NNW 13:50:45 10° NNE daylight
20 Jun - 15:27:50 10° NNW 15:31:18 16° N 15:34:37 10° NE daylight
20 Jun - 17:11:09 10° NNW 17:15:51 27° NNE 17:20:12 10° E daylight
20 Jun - 18:53:45 10° NW 18:59:12 87° SW 19:04:07 10° SE daylight
20 Jun - 20:37:53 10° WNW 20:40:54 16° WSW 20:43:45 10° SW daylight
21 Jun - 09:32:35 10° SSE 09:37:39 28° ESE 09:42:37 10° NE daylight
21 Jun - 11:13:49 10° SW 11:19:56 72° NW 11:25:48 10° NE daylight
21 Jun - 12:58:37 10° W 13:03:31 25° NNW 13:08:13 10° NNE daylight
21 Jun - 14:44:41 10° NW 14:48:09 16° N 14:51:28 10° NE daylight
21 Jun - 16:28:36 10° NNW 16:32:53 22° NNE 16:36:53 10° ENE daylight
21 Jun - 18:11:12 10° NW 18:16:38 62° NE 18:21:31 10° SE daylight
21 Jun - 19:54:30 10° NW 19:58:46 25° WSW 20:02:44 10° SSW daylight
22 Jun - 08:51:30 10° SSE 08:55:27 18° ESE 08:59:22 10° ENE daylight
22 Jun - 10:31:14 10° SSW 10:37:22 81° SE 10:43:15 10° NE daylight
22 Jun - 12:15:15 10° W 12:20:37 32° NW 12:25:44 10° NNE daylight
22 Jun - 14:01:20 10° NW 14:05:00 17° N 14:08:32 10° NNE daylight
22 Jun - 15:45:58 10° NNW 15:49:50 18° NNE 15:53:28 10° ENE daylight
22 Jun - 17:28:41 10° NNW 17:33:56 43° NE 17:38:41 10° ESE daylight
22 Jun - 19:11:35 10° NW 19:16:33 41° WSW 19:21:03 10° S daylight
23 Jun - 08:11:50 10° ESE 08:13:22 11° E 08:14:56 10° E daylight
23 Jun - 09:48:58 10° SSW 09:54:55 55° ESE 10:00:39 10° NE daylight
23 Jun - 11:32:03 10° WSW 11:37:47 42° NW 11:43:15 10° NNE daylight
23 Jun - 13:17:50 10° WNW 13:21:55 19° NNW 13:25:48 10° NNE daylight
23 Jun - 15:03:12 10° NNW 15:06:44 16° N 15:10:05 10° NE daylight
23 Jun - 16:46:12 10° NNW 16:51:07 32° NE 16:55:37 10° E daylight
23 Jun - 18:28:52 10° NW 18:34:11 66° WSW 18:38:58 10° SSE daylight
23 Jun - 20:14:28 10° W 20:15:34 11° W 20:16:41 10° WSW daylight
24 Jun - 09:07:02 10° S 09:12:32 37° ESE 09:17:53 10° NE daylight
24 Jun - 10:49:03 10° SW 10:55:03 57° NW 11:00:47 10° NNE daylight
24 Jun - 12:34:19 10° WNW 12:38:51 22° NNW 12:43:12 10° NNE daylight
24 Jun - 14:20:13 10° NW 14:23:35 16° N 14:26:50 10° NE daylight
24 Jun - 16:03:41 10° NNW 16:08:12 25° NNE 16:12:23 10° E daylight
24 Jun - 17:46:16 10° NW 17:51:41 81° NE 17:56:34 10° SE daylight
24 Jun - 19:30:03 10° WNW 19:33:31 18° WSW 19:36:49 10° SSW daylight
25 Jun - 08:25:31 10° SSE 08:30:17 24° ESE 08:34:55 10° ENE daylight
25 Jun - 10:06:19 10° SW 10:12:26 81° NW 10:18:17 10° NE daylight
25 Jun - 11:50:51 10° W 11:55:53 27° NNW 12:00:42 10° NNE daylight
25 Jun - 13:36:59 10° NW 13:40:26 16° N 13:43:45 10° NNE daylight
25 Jun - 15:21:07 10° NNW 15:25:12 20° NNE 15:29:02 10° ENE daylight
25 Jun - 17:03:44 10° NNW 17:09:04 54° NE 17:13:53 10° ESE daylight
25 Jun - 18:46:52 10° NW 18:51:22 30° WSW 18:55:31 10° S daylight
